Regional Weather Roundup
Issued by NWS Charleston, WV

Home | Current Version | Previous Version | Text Only | Print | Product List | Glossary Off
Versions: 1 2 3 4 5 6 7 8 9 10 11 12 13 14 15 16 17 18 19 20 21 22 23 24 25 26 27 28 29 30 31 32 33 34 35 36 37 38 39 40 41 42 43 44 45 46 47 48 49 50

000
ASUS41 KRLX 041110
RWRRLX
West Virginia Regional Weather Roundup
National Weather Service Charleston WV
700 AM EDT FRI SEP 04 2015

Note: "fair" indicates few or no clouds below 12,000 feet with no
significant weather and/or obstructions to visibility.

WVZ003-041200-
Northern Panhandle of West Virginia

CITY           SKY/WX    TMP DP  RH WIND       PRES   REMARKS
WHEELING       MOCLDY    66  63  90 CALM      30.06F
$$

WVZ009-041200-
Northwest West Virginia

CITY           SKY/WX    TMP DP  RH WIND       PRES   REMARKS
PARKERSBURG    MOCLDY    65  64  97 CALM      30.09R FOG
$$

WVZ006-041200-
Western West Virginia

CITY           SKY/WX    TMP DP  RH WIND       PRES   REMARKS
HUNTINGTON     CLEAR     64  64 100 CALM      30.03R FOG
$$

WVZ015-041200-
West Central West Virginia

CITY           SKY/WX    TMP DP  RH WIND       PRES   REMARKS
CHARLESTON     FOG       67  66  97 CALM      30.05R VSB 1/2
$$

WVZ022-031-041200-
North Central West Virginia

CITY           SKY/WX    TMP DP  RH WIND       PRES   REMARKS
CLARKSBURG     PTCLDY    62  61  96 CALM      30.08R FOG
MORGANTOWN     MOCLDY    66  62  87 CALM      30.09R FOG
$$

WVZ025-035-042-045-041200-
Southern West Virginia

CITY           SKY/WX    TMP DP  RH WIND       PRES   REMARKS
BECKLEY        CLEAR     63  61  93 CALM      30.12R FOG
LOGAN          FOG       66  66 100 CALM      30.07S VSB<1/4
BLUEFIELD      CLEAR     65  61  87 W5        30.14R FOG
LEWISBURG      FOG       63  61  94 CALM      30.12R VSB<1/4
$$

WVZ047-041200-
Northern Mountains of West Virginia

CITY           SKY/WX    TMP DP  RH WIND       PRES   REMARKS
ELKINS         CLOUDY    64  62  93 CALM      30.12R FOG
$$

WVZ052-041200-
Eastern Panhandle of West Virginia

CITY           SKY/WX    TMP DP  RH WIND       PRES   REMARKS
MARTINSBURG    CLEAR     65  64  97 CALM      30.01R FOG
PETERSBURG     FOG       65  65 100 CALM      30.06R VSB<1/4
$$



USA.gov is the U.S. government's official web portal to all federal, state and local government web resources and services.